User: anonymous   Login
Location: Unspecified
(0.0000°N, 0.0000°E)
Time: 01:05:46
(UTC+00:00)
Language:

MAROC-TUBSAT - Orbit

View from above orbital plane
View from above orbital plane
View from above satellite
View from above satellite

Ground track
Ground track

The orbit data is extracted from the following two-line orbital elements,

1 27004U 01056D   21023.84995979 -.00000045  00000-0 -57341-6 0  9990
2 27004  99.5467 161.2940 0020092 164.5701 315.8350 13.70144244956358
Epoch (UTC): 23 January 2021 20:23:56
Eccentricity: 0.0020092
inclination: 99.5467°
perigee height: 984 km
apogee height: 1014 km
right ascension of ascending node: 161.2940°
argument of perigee: 164.5701°
revolutions per day: 13.70144244
mean anomaly at epoch: 315.8350°
orbit number at epoch: 95635

The dashed part of the orbit path shows where the satellite is in the earth's shadow,  

DLR